210  
ASPQ40 PGUM 180212  
RWRPQ  
WEATHER ROUNDUP FOR THE MARIANAS AND MICRONESIA  
NATIONAL WEATHER SERVICE TIYAN GU  
1200 PM CHST SUN FEB 18 2018  
 
GUZ001>004-180300-  
MARIANA ISLANDS-  
 
CITY SKY/WX TMP DP RH WIND PRES REMARKS
 
GUAM AIRPORT PTSUNNY 84 75 74 E20 29.92F HX 92  
ANDERSEN AFB MOSUNNY 82 72 69 NE15G23 29.93F  
ROTA AIRPORT MOSUNNY 81 70 69 NE17 29.93F  
TINIAN AP MOSUNNY 82 75 78 NE17 29.92F  
SAIPAN AP MOSUNNY 88 73 62 E20 29.93F HX 96  
 

 
 
PMZ161-180300-  
REPUBLIC OF PALAU-  
 
CITY SKY/WX TMP DP RH WIND PRES REMARKS
 
KOROR AP PTSUNNY 82 75 78 E12G20 29.85S  
KOROR WSO CLOUDY 84 75 74 E13 29.86F HX 92  
 

 
 
PMZ171>174-180300-  
FEDERATED STATES OF MICRONESIA-  
 
CITY SKY/WX TMP DP RH WIND PRES REMARKS
 
YAP AIRPORT PTSUNNY 86 77 74 E16 29.88R HX 97  
CHUUK AP PTSUNNY 88 75 66 NE12 29.80F HX 97  
POHNPEI AP CLOUDY 84 72 65 E12 29.78  
POHNPEI WSO CLOUDY 84 72 65 NE10 29.81F  
KOSRAE AP CLOUDY 82 75 78 NE12 29.72F  
 

 
 
PMZ181-180300-  
REPUBLIC OF THE MARSHALL ISLANDS-  
 
CITY SKY/WX TMP DP RH WIND PRES REMARKS
 
KWAJALEIN AP PTSUNNY 79 75 89 SE3 29.81F  
MAJURO AP NOT AVBL  
MAJURO WSO PTSUNNY 86 79 79 E13 29.76F HX 99  
 

 
 
 
 
CLICK HERE TO GO TO PREVIOUS BULLETINS.

The Nexlab GU Page Main Text Page